Location: Austin
(30.3000°N, 97.7500°W)
Time: 10:08:10
(UTC-05:00)

Cosmos 1633 Rocket - Pass Details

Date: 26 May 2023
Orbit: 604 x 623 km, 82.5° (Epoch: 30 May)

Event Time Altitude Azimuth Distance (km) Brightness Sun altitude
Rises 23:08:48 0° 349° (N) 2,869 7.4 -28.5°
Reaches altitude 10° 23:11:02 10° 346° (NNW) 1,964 6.4 -28.8°
Enters shadow 23:14:07 42° 323° (NW) 868 4.1 -29.2°
